Change the Weather History Date:

Wednesday, February 26, 2014

  Actual Average Record
Temperature  
Mean Temperature -2 °F -  
Max Temperature 8 °F 29 °F 40 °F (1981)
Min Temperature -13 °F 6 °F -23 °F (1980)
Degree Days  
Heating Degree Days 68    
Moisture  
Dew Point -4 °F    
Average Humidity 82    
Maximum Humidity 100    
Minimum Humidity 56    
Precipitation  
Precipitation 0.00 in - - ()
Sea Level Pressure  
Sea Level Pressure 29.71 in    
Wind  
Wind Speed 9 mph (WSW)    
Max Wind Speed 18 mph    
Max Gust Speed 28 mph    
Visibility 7 miles    
Events      
Averages and records for this station are not official NWS values.
T = Trace of Precipitation, MM = Missing Value Source: NWS Daily Summary

Daily Weather History Graph

Daily Weather History Graph

Search for Another Location

Airport or City:

Trip Planner

Search our weather history database for the weather conditions in past years. The results will help you decide how hot, cold, wet, or windy it might be!

Date:

Astronomy

Feb. 26, 2014 Rise Set
Actual Time 7:22 AM EST 6:19 PM EST
Civil Twilight 6:52 AM EST 6:50 PM EST
Nautical Twilight 6:17 AM EST 7:24 PM EST
Astronomical Twilight 5:42 AM EST 7:59 PM EST
Moon 5:15 AM EST (2/26) 3:27 PM EST (2/26)
Length of Visible Light 11h 58m
Length of Day
10h 57m
Waning Crescent, 10% of the Moon is Illuminated
Feb 26
Waning Crescent
Mar 1
New
Mar 8
First Quarter
Mar 16
Full
Mar 23
Last Quarter

Hourly Weather History & Observations

Time (EST) Temp. Windchill Dew Point Humidity Pressure Visibility Wind Dir Wind Speed Gust Speed Precip Events Conditions
12:15 AM -5.8 °F -22.4 °F -5.8 °F 100% 29.92 in 10.0 mi West 9.2 mph - N/A   Scattered Clouds
12:35 AM -5.8 °F -21.2 °F -7.6 °F 92% 29.92 in 9.0 mi West 8.1 mph - N/A   Partly Cloudy
12:55 AM -5.8 °F -22.4 °F -7.6 °F 92% 29.92 in 10.0 mi West 9.2 mph - N/A   Clear
1:15 AM -5.8 °F -21.2 °F -7.6 °F 92% 29.92 in 9.0 mi West 8.1 mph - N/A   Clear
1:35 AM -5.8 °F -22.4 °F -7.6 °F 92% 29.93 in 7.0 mi West 9.2 mph - N/A   Mostly Cloudy
1:55 AM -5.8 °F -19.9 °F -7.6 °F 92% 29.93 in 3.0 mi West 6.9 mph - N/A   Mostly Cloudy
2:15 AM -5.8 °F -21.2 °F -7.6 °F 92% 29.93 in 10.0 mi West 8.1 mph - N/A   Mostly Cloudy
2:35 AM -5.8 °F -19.9 °F -7.6 °F 92% 29.94 in 10.0 mi West 6.9 mph - N/A   Partly Cloudy
2:55 AM -7.6 °F -22.1 °F -9.4 °F 92% 29.93 in 10.0 mi WSW 6.9 mph - N/A   Clear
3:15 AM -7.6 °F -20.6 °F -9.4 °F 92% 29.93 in 10.0 mi West 5.8 mph - N/A   Clear
3:35 AM -7.6 °F -22.1 °F -11.2 °F 84% 29.93 in 10.0 mi WSW 6.9 mph - N/A   Clear
3:55 AM -9.4 °F -25.6 °F -11.2 °F 92% 29.93 in 10.0 mi West 8.1 mph - N/A   Clear
4:15 AM -9.4 °F -24.3 °F -11.2 °F 92% 29.93 in 10.0 mi West 6.9 mph - N/A   Clear
4:35 AM -9.4 °F -24.3 °F -11.2 °F 92% 29.92 in 10.0 mi West 6.9 mph - N/A   Clear
4:55 AM -9.4 °F -22.7 °F -13.0 °F 84% 29.93 in 10.0 mi West 5.8 mph - N/A   Clear
5:15 AM -11.2 °F -24.8 °F -13.0 °F 92% 29.93 in 10.0 mi West 5.8 mph - N/A   Clear
5:35 AM -11.2 °F -24.8 °F -14.8 °F 84% 29.93 in 10.0 mi West 5.8 mph - N/A   Partly Cloudy
5:55 AM -11.2 °F -24.8 °F -14.8 °F 84% 29.93 in 10.0 mi West 5.8 mph - N/A   Clear
6:15 AM -11.2 °F -24.8 °F -14.8 °F 84% 29.92 in 10.0 mi WSW 5.8 mph - N/A   Clear
6:35 AM -11.2 °F -24.8 °F -14.8 °F 84% 29.93 in 10.0 mi West 5.8 mph - N/A   Clear
6:55 AM -13.0 °F -25.1 °F -16.6 °F 84% 29.93 in 10.0 mi WSW 4.6 mph - N/A   Clear
7:15 AM - - - N/A% 29.91 in 10.0 mi Calm Calm - N/A   Partly Cloudy
7:35 AM - - - N/A% 29.91 in 10.0 mi Calm Calm - N/A   Clear
7:55 AM -9.4 °F -18.6 °F -11.2 °F 92% 29.90 in 10.0 mi SW 3.5 mph - N/A   Clear
8:15 AM -7.6 °F -16.5 °F -9.4 °F 92% 29.90 in 10.0 mi SSW 3.5 mph - N/A   Clear
8:35 AM -5.8 °F -14.5 °F -9.4 °F 84% 29.90 in 10.0 mi SW 3.5 mph - N/A   Clear
8:55 AM -4.0 °F -16.3 °F -7.6 °F 85% 29.90 in 10.0 mi WSW 5.8 mph - N/A   Clear
9:15 AM -2.2 °F -15.6 °F -5.8 °F 85% 29.89 in 10.0 mi WSW 6.9 mph - N/A   Clear
9:35 AM -0.4 °F -12.0 °F -4.0 °F 85% 29.88 in 10.0 mi WSW 5.8 mph - N/A   Clear
9:55 AM 1.4 °F -13.5 °F -2.2 °F 85% 29.87 in 10.0 mi WSW 9.2 mph - N/A   Clear
10:15 AM 1.4 °F -9.9 °F -4.0 °F 78% 29.85 in 8.0 mi SW 5.8 mph 17.3 mph N/A   Clear
10:35 AM 1.4 °F -13.5 °F -5.8 °F 72% 29.84 in 8.0 mi SSW 9.2 mph - N/A   Clear
10:55 AM 1.4 °F -12.5 °F -4.0 °F 78% 29.82 in 8.0 mi SSW 8.1 mph - N/A   Mostly Cloudy
11:15 AM 3.2 °F -13.9 °F -7.6 °F 61% 29.81 in 8.0 mi SW 12.7 mph 19.6 mph N/A   Partly Cloudy
11:35 AM 3.2 °F -12.2 °F -7.6 °F 61% 29.79 in 9.0 mi SW 10.4 mph 18.4 mph N/A   Clear
11:55 AM 3.2 °F -12.2 °F -7.6 °F 61% 29.78 in 10.0 mi SW 10.4 mph 18.4 mph N/A   Mostly Cloudy
12:15 PM 6.8 °F -9.3 °F -5.8 °F 56% 29.76 in 10.0 mi SW 12.7 mph 24.2 mph N/A   Overcast
12:35 PM 5.0 °F -10.0 °F -4.0 °F 66% 29.74 in 9.0 mi SSW 10.4 mph 20.7 mph N/A   Overcast
12:55 PM 6.8 °F -7.8 °F -2.2 °F 67% 29.72 in 3.0 mi SSW 10.4 mph 20.7 mph N/A   Overcast
1:15 PM 6.8 °F -9.3 °F -2.2 °F 67% 29.70 in 2.5 mi SSW 12.7 mph 21.9 mph N/A   Overcast
1:35 PM 6.8 °F -10.7 °F -2.2 °F 67% 29.68 in 3.0 mi SSW 15.0 mph 24.2 mph N/A   Overcast
1:55 PM 6.8 °F -9.3 °F -2.2 °F 67% 29.65 in 5.0 mi South 12.7 mph 21.9 mph N/A   Overcast
2:15 PM 8.6 °F -7.7 °F -0.4 °F 67% 29.64 in 3.0 mi SSW 13.8 mph 24.2 mph N/A   Overcast
2:35 PM 8.6 °F -10.0 °F -0.4 °F 67% 29.62 in 3.0 mi SSW 18.4 mph 27.6 mph N/A   Overcast
2:55 PM 6.8 °F -8.6 °F 1.4 °F 79% 29.60 in 2.0 mi SW 11.5 mph 26.5 mph N/A   Overcast
3:15 PM 8.6 °F -7.7 °F 3.2 °F 79% 29.57 in 1.0 mi SSW 13.8 mph 21.9 mph N/A   Overcast
3:35 PM 8.6 °F -9.5 °F 3.2 °F 79% 29.56 in 1.0 mi SSW 17.3 mph 26.5 mph N/A   Overcast
3:55 PM 8.6 °F -8.3 °F 5.0 °F 85% 29.53 in 0.8 mi South 15.0 mph 20.7 mph N/A   Overcast
4:15 PM 8.6 °F -7.7 °F 6.8 °F 92% 29.52 in 0.2 mi South 13.8 mph 20.7 mph N/A   Overcast
4:35 PM 8.6 °F -3.7 °F 6.8 °F 92% 29.51 in 0.5 mi SSW 8.1 mph 17.3 mph N/A   Overcast
4:55 PM 8.6 °F -7.0 °F 6.8 °F 92% 29.50 in 0.2 mi SSW 12.7 mph 19.6 mph N/A   Overcast
5:15 PM 8.6 °F -5.5 °F 6.8 °F 92% 29.49 in 0.5 mi SW 10.4 mph 23.0 mph N/A   Overcast
5:35 PM 8.6 °F -6.3 °F 5.0 °F 85% 29.48 in 1.2 mi SW 11.5 mph 19.6 mph N/A   Overcast
5:55 PM 8.6 °F -7.0 °F 3.2 °F 79% 29.47 in 2.0 mi SW 12.7 mph 20.7 mph N/A   Overcast
6:15 PM 6.8 °F -9.3 °F 3.2 °F 85% 29.47 in 4.0 mi WSW 12.7 mph 17.3 mph N/A   Overcast
6:35 PM 6.8 °F -8.6 °F 3.2 °F 85% 29.47 in 1.8 mi WSW 11.5 mph 20.7 mph N/A   Overcast
6:55 PM 6.8 °F -10.7 °F 3.2 °F 85% 29.47 in 1.8 mi WSW 15.0 mph 21.9 mph N/A   Overcast
7:15 PM 6.8 °F -11.3 °F 1.4 °F 79% 29.46 in 2.0 mi WSW 16.1 mph 25.3 mph N/A   Overcast
7:35 PM 6.8 °F -7.8 °F 3.2 °F 85% 29.46 in 3.0 mi WSW 10.4 mph 20.7 mph N/A   Overcast
7:55 PM 6.8 °F -6.9 °F 3.2 °F 85% 29.45 in 4.0 mi WSW 9.2 mph 17.3 mph N/A   Overcast
8:15 PM 6.8 °F -5.9 °F 1.4 °F 79% 29.44 in 10.0 mi SW 8.1 mph - N/A   Overcast
8:35 PM 6.8 °F -6.9 °F -0.4 °F 72% 29.43 in 10.0 mi WSW 9.2 mph 17.3 mph N/A   Overcast
8:55 PM 6.8 °F -6.9 °F -0.4 °F 72% 29.42 in 10.0 mi WSW 9.2 mph - N/A   Overcast
9:15 PM 6.8 °F -6.9 °F -0.4 °F 72% 29.42 in 10.0 mi WSW 9.2 mph - N/A   Overcast
9:35 PM 6.8 °F -7.8 °F -0.4 °F 72% 29.42 in 10.0 mi West 10.4 mph - N/A   Mostly Cloudy
9:55 PM 6.8 °F -8.6 °F -0.4 °F 72% 29.41 in 10.0 mi West 11.5 mph 19.6 mph N/A   Overcast
10:15 PM 5.0 °F -10.0 °F -0.4 °F 78% 29.41 in 10.0 mi West 10.4 mph - N/A   Overcast
10:35 PM 5.0 °F -10.0 °F -0.4 °F 78% 29.42 in 4.0 mi West 10.4 mph - N/A   Overcast
10:55 PM 3.2 °F -12.2 °F -0.4 °F 85% 29.41 in 10.0 mi West 10.4 mph - N/A   Overcast
11:15 PM 3.2 °F -12.2 °F -0.4 °F 85% 29.41 in 10.0 mi West 10.4 mph - N/A   Mostly Cloudy
11:35 PM 1.4 °F -15.3 °F -0.4 °F 92% 29.41 in 10.0 mi West 11.5 mph - N/A   Partly Cloudy
11:55 PM 1.4 °F -14.5 °F -0.4 °F 92% 29.42 in 10.0 mi WNW 10.4 mph - N/A   Clear